| time (UTC) | temp F | wind direction | speed knots | gust knots | rain 1hr in | rain 24hr in | rain mn in | humidity % | barometer mb |
| 20260505004518 | 64 | 207 | 1.7 | 4.3 | 0.00 | 0.00 | 0.00 | 67 | 1011.0 |
| 20260505003555 | 64 | 237 | 1.7 | 5.2 | 0.00 | 0.00 | 0.00 | 69 | 1011.0 |
| 20260505002535 | 64 | 208 | 0.9 | 4.3 | 0.00 | 0.00 | 0.00 | 69 | 1010.9 |
| 20260505001515 | 64 | 216 | 0.9 | 6.1 | 0.00 | 0.00 | 0.00 | 68 | 1011.0 |
| 20260505000516 | 64 | 242 | 0.9 | 2.6 | 0.00 | 0.00 | 0.00 | 69 | 1011.0 |
| 20260504235516 | 65 | 206 | 0.9 | 3.5 | 0.00 | 0.00 | 0.00 | 69 | 1011.0 |
| 20260504234516 | 65 | 187 | 1.7 | 3.5 | 0.00 | 0.00 | 0.00 | 67 | 1011.0 |
| 20260504233516 | 66 | 202 | 1.7 | 4.3 | 0.00 | 0.00 | 0.00 | 64 | 1010.9 |
| 20260504232517 | 67 | 222 | 1.7 | 4.3 | 0.00 | 0.00 | 0.00 | 64 | 1010.9 |
| 20260504231517 | 68 | 196 | 1.7 | 5.2 | 0.00 | 0.00 | 0.00 | 63 | 1010.9 |
| 20260504230516 | 68 | 224 | 0.9 | 3.5 | 0.00 | 0.00 | 0.00 | 64 | 1010.8 |
| 20260504225517 | 69 | 209 | 0.9 | 5.2 | 0.00 | 0.00 | 0.00 | 62 | 1010.8 |
| 20260504224517 | 69 | 236 | 0.9 | 3.5 | 0.00 | 0.00 | 0.00 | 59 | 1010.9 |
| 20260504223517 | 70 | 216 | 0.9 | 4.3 | 0.00 | 0.00 | 0.00 | 57 | 1010.9 |
| 20260504222558 | 70 | 202 | 0.9 | 3.5 | 0.00 | 0.00 | 0.00 | 56 | 1010.9 |
| 20260504221538 | 71 | 224 | 1.7 | 7.0 | 0.00 | 0.00 | 0.00 | 55 | 1010.8 |
| 20260504220518 | 70 | 199 | 1.7 | 5.2 | 0.00 | 0.00 | 0.00 | 55 | 1010.8 |
| 20260504215517 | 70 | 206 | 0.9 | 2.6 | 0.00 | 0.00 | 0.00 | 57 | 1010.8 |
| 20260504214518 | 70 | 226 | 0.9 | 5.2 | 0.00 | 0.00 | 0.00 | 60 | 1010.9 |
| 20260504213515 | 69 | 209 | 1.7 | 5.2 | 0.00 | 0.00 | 0.00 | 59 | 1011.0 |
| 20260504212515 | 69 | 220 | 0.9 | 4.3 | 0.00 | 0.00 | 0.00 | 61 | 1011.0 |
| 20260504211516 | 69 | 245 | 0.9 | 3.5 | 0.00 | 0.00 | 0.00 | 61 | 1011.0 |
| 20260504210536 | 69 | 208 | 0.9 | 4.3 | 0.00 | 0.00 | 0.00 | 60 | 1011.0 |
| 20260504205535 | 70 | 210 | 0.9 | 6.1 | 0.00 | 0.00 | 0.00 | 57 | 1011.1 |
| 20260504204516 | 71 | 213 | 0.9 | 3.5 | 0.00 | 0.00 | 0.00 | 54 | 1011.0 |
| 20260504203516 | 72 | 39 | 0.9 | 3.5 | 0.00 | 0.00 | 0.00 | 53 | 1011.1 |
| 20260504202537 | 72 | 212 | 0.9 | 3.5 | 0.00 | 0.00 | 0.00 | 51 | 1011.3 |
| 20260504201516 | 73 | 213 | 0.9 | 6.1 | 0.00 | 0.00 | 0.00 | 51 | 1011.3 |
| 20260504200537 | 76 | 228 | 0.9 | 2.6 | 0.00 | 0.00 | 0.00 | 50 | 1011.5 |
| 20260504195536 | 76 | 210 | 0.9 | 2.6 | 0.00 | 0.00 | 0.00 | 46 | 1011.6 |
| 20260504194517 | 75 | 24 | 0.9 | 4.3 | 0.00 | 0.00 | 0.00 | 46 | 1011.7 |
| 20260504193517 | 75 | 183 | 0.9 | 5.2 | 0.00 | 0.00 | 0.00 | 47 | 1011.9 |
| 20260504192518 | 74 | 301 | 0.9 | 2.6 | 0.00 | 0.00 | 0.00 | 48 | 1012.1 |
| 20260504191518 | 74 | 169 | 0.9 | 4.3 | 0.00 | 0.00 | 0.00 | 45 | 1012.2 |
| 20260504190558 | 74 | 339 | 0.9 | 6.1 | 0.00 | 0.00 | 0.00 | 47 | 1012.3 |
| 20260504185518 | 74 | 355 | 0.9 | 3.5 | 0.00 | 0.00 | 0.00 | 46 | 1012.5 |
| 20260504184518 | 73 | 262 | 0.9 | 3.5 | 0.00 | 0.00 | 0.00 | 49 | 1012.7 |
| 20260504183516 | 74 | 178 | 0.9 | 4.3 | 0.00 | 0.00 | 0.00 | 47 | 1012.8 |
| 20260504182515 | 73 | 319 | 0.9 | 3.5 | 0.00 | 0.00 | 0.00 | 48 | 1012.9 |
| 20260504181516 | 73 | 198 | 1.7 | 4.3 | 0.00 | 0.00 | 0.00 | 47 | 1013.1 |
| 20260504180516 | 73 | 179 | 0.9 | 3.5 | 0.00 | 0.00 | 0.00 | 45 | 1013.1 |
| 20260504175516 | 73 | 188 | 0.9 | 4.3 | 0.00 | 0.00 | 0.00 | 45 | 1013.3 |
| 20260504174516 | 73 | 285 | 0.9 | 3.5 | 0.00 | 0.00 | 0.00 | 44 | 1013.4 |
| 20260504173516 | 73 | 243 | 0.9 | 2.6 | 0.00 | 0.00 | 0.00 | 47 | 1013.6 |
| 20260504172516 | 73 | 8 | 0.9 | 3.5 | 0.00 | 0.00 | 0.00 | 46 | 1013.7 |
| 20260504171517 | 72 | 354 | 0.9 | 2.6 | 0.00 | 0.00 | 0.00 | 47 | 1013.6 |
| 20260504170517 | 71 | 339 | 0.9 | 2.6 | 0.00 | 0.00 | 0.00 | 50 | 1013.8 |
| 20260504150516 | 67 | 269 | 0.9 | 2.6 | 0.00 | 0.00 | 0.00 | 55 | 1015.0 |
| 20260504140517 | 64 | 13 | 0.0 | 1.7 | 0.00 | 0.00 | 0.00 | 48 | 1015.1 |
| 20260504130518 | 59 | 215 | 0.9 | 3.5 | 0.00 | 0.00 | 0.00 | 51 | 1015.3 |
| 20260504110517 | 53 | 9 | 0.0 | 1.7 | 0.00 | 0.00 | 0.00 | 62 | 1015.8 |
| 20260504100518 | 54 | 219 | 0.9 | 3.5 | 0.00 | 0.00 | 0.00 | 63 | 1015.9 |
| 20260504081519 | 54 | 234 | 0.0 | 1.7 | 0.00 | 0.00 | 0.00 | 64 | 1016.0 |
| 20260504080520 | 54 | 247 | 0.0 | 0.9 | 0.00 | 0.00 | 0.00 | 62 | 1016.0 |
| 20260504050517 | 49 | 297 | 0.0 | 0.9 | 0.00 | 0.00 | 0.00 | 71 | 1016.2 |
| 20260504045537 | 49 | 299 | 0.0 | 0.9 | 0.00 | 0.00 | 0.00 | 71 | 1016.2 |
| 20260504044518 | 49 | 29 | 0.0 | 0.9 | 0.00 | 0.00 | 0.00 | 70 | 1016.3 |
| 20260504043518 | 48 | 32 | 0.0 | 0.9 | 0.00 | 0.00 | 0.00 | 71 | 1016.2 |
| 20260504042518 | 47 | 343 | 0.0 | 0.9 | 0.00 | 0.00 | 0.00 | 73 | 1016.3 |
| 20260504041518 | 47 | 310 | 0.0 | 0.9 | 0.00 | 0.00 | 0.00 | 77 | 1016.3 |
| 20260504040515 | 47 | 301 | 0.0 | 0.9 | 0.00 | 0.00 | 0.00 | 84 | 1016.2 |
| 20260504035516 | 46 | 332 | 0.0 | 0.9 | 0.00 | 0.00 | 0.00 | 81 | 1016.2 |
| 20260504034516 | 46 | 296 | 0.0 | 0.9 | 0.00 | 0.00 | 0.00 | 84 | 1016.1 |
| 20260504033516 | 47 | 308 | 0.0 | 0.9 | 0.00 | 0.00 | 0.00 | 83 | 1016.1 |
| 20260504032516 | 47 | 309 | 0.9 | 1.7 | 0.00 | 0.00 | 0.00 | 83 | 1015.9 |
| 20260504031516 | 47 | 290 | 0.0 | 0.9 | 0.00 | 0.00 | 0.00 | 82 | 1015.8 |
| 20260504030516 | 47 | 9 | 0.0 | 0.9 | 0.00 | 0.00 | 0.00 | 82 | 1015.8 |
| 20260504025516 | 47 | 295 | 0.0 | 1.7 | 0.00 | 0.00 | 0.00 | 81 | 1015.8 |
| 20260504024536 | 48 | 318 | 0.0 | 0.9 | 0.00 | 0.00 | 0.00 | 80 | 1015.8 |
| 20260504023517 | 48 | 340 | 0.0 | 0.9 | 0.00 | 0.00 | 0.00 | 79 | 1015.8 |
| 20260504022517 | 48 | 307 | 0.0 | 0.9 | 0.00 | 0.00 | 0.00 | 78 | 1015.8 |
| 20260504021517 | 49 | 313 | 0.0 | 0.9 | 0.00 | 0.00 | 0.00 | 77 | 1015.8 |
| 20260504020517 | 49 | 312 | 0.0 | 0.9 | 0.00 | 0.00 | 0.00 | 76 | 1015.7 |
| 20260504015518 | 50 | 293 | 0.0 | 0.9 | 0.00 | 0.00 | 0.00 | 74 | 1015.7 |
| 20260504014518 | 50 | 292 | 0.0 | 0.9 | 0.00 | 0.00 | 0.00 | 72 | 1015.7 |
| 20260504013518 | 50 | 298 | 0.9 | 1.7 | 0.00 | 0.00 | 0.00 | 72 | 1015.6 |
| 20260504012518 | 51 | 292 | 0.9 | 1.7 | 0.00 | 0.00 | 0.00 | 71 | 1015.5 |
| 20260504011515 | 52 | 295 | 0.0 | 1.7 | 0.00 | 0.00 | 0.00 | 67 | 1015.4 |
| 20260504010518 | 52 | 294 | 0.0 | 0.9 | 0.00 | 0.00 | 0.00 | 61 | 1015.4 |
| 20260504005515 | 53 | 277 | 0.0 | 0.9 | 0.00 | 0.00 | 0.00 | 60 | 1015.4 |